"Period start","avg(HW err(1)/warn(2) (#))","avg(Visibility (m))","avg(Weather code (#))","avg(Precip intensity (mm/h))","min(HW err(1)/warn(2) (#))","max(HW err(1)/warn(2) (#))","std(HW err(1)/warn(2) (#))","med(HW err(1)/warn(2) (#))","min(Visibility (m))","max(Visibility (m))","std(Visibility (m))","med(Visibility (m))","min(Weather code (#))","max(Weather code (#))","std(Weather code (#))","med(Weather code (#))","min(Precip intensity (mm/h))","max(Precip intensity (mm/h))","std(Precip intensity (mm/h))","med(Precip intensity (mm/h))"
2016-04-29 00:00:00,2,25505,0,0.00,2,2,0,2,15000,45752,8979,22564,0,0,0,0,0.00,0.00,0.00,0.00
2016-04-29 00:10:00,2,35191,0,0.00,2,2,0,2,21076,50000,8846,34668,0,0,0,0,0.00,0.00,0.00,0.00
2016-04-29 00:20:00,2,37760,0,0.00,2,2,0,2,18259,50000,9889,37488,0,0,0,0,0.00,0.00,0.00,0.00
2016-04-29 00:30:00,2,36023,0,0.00,2,2,0,2,20461,50000,9986,36806,0,0,0,0,0.00,0.00,0.00,0.00
2016-04-29 00:40:00,2,30143,0,0.00,2,2,0,2,16469,45423,12111,24959,0,0,0,0,0.00,0.00,0.00,0.00
2016-04-29 00:50:00,2,29903,0,0.00,2,2,0,2,16226,50000,9334,29394,0,0,0,0,0.00,0.00,0.00,0.00
2016-04-29 01:00:00,2,39753,0,0.00,2,2,0,2,30248,50000,6414,40058,0,0,0,0,0.00,0.00,0.00,0.00
2016-04-29 01:10:00,2,32142,0,0.00,2,2,0,2,17804,50000,11372,33274,0,0,0,0,0.00,0.00,0.00,0.00
2016-04-29 01:20:00,2,37737,0,0.00,2,2,0,2,29255,44885,5198,37588,0,0,0,0,0.00,0.00,0.00,0.00
2016-04-29 01:30:00,2,36920,0,0.00,2,2,0,2,25647,50000,8270,37871,0,0,0,0,0.00,0.00,0.00,0.00
2016-04-29 01:40:00,2,32068,0,0.00,2,2,0,2,14229,50000,11593,33482,0,0,0,0,0.00,0.00,0.00,0.00
2016-04-29 01:50:00,2,34352,0,0.00,2,2,0,2,24052,49362,7588,32040,0,0,0,0,0.00,0.00,0.00,0.00
2016-04-29 02:00:00,2,37506,0,0.00,2,2,0,2,16917,50000,10542,41656,0,0,0,0,0.00,0.00,0.00,0.00
2016-04-29 02:10:00,2,35510,0,0.00,2,2,0,2,23718,50000,8095,33943,0,0,0,0,0.00,0.00,0.00,0.00
2016-04-29 02:20:00,2,38190,0,0.00,2,2,0,2,17980,50000,12542,45953,0,0,0,0,0.00,0.00,0.00,0.00
2016-04-29 02:30:00,2,40046,0,0.00,2,2,0,2,28964,50000,7079,39964,0,0,0,0,0.00,0.00,0.00,0.00
2016-04-29 02:40:00,2,29674,0,0.00,2,2,0,2,17627,48689,9718,28750,0,0,0,0,0.00,0.00,0.00,0.00
2016-04-29 02:50:00,2,34056,0,0.00,2,2,0,2,24959,42796,5472,34980,0,0,0,0,0.00,0.00,0.00,0.00
2016-04-29 03:00:00,2,41770,0,0.00,2,2,0,2,25693,50000,7858,43072,0,0,0,0,0.00,0.00,0.00,0.00
2016-04-29 03:10:00,2,37588,0,0.00,2,2,0,2,20509,50000,9712,36219,0,0,0,0,0.00,0.00,0.00,0.00
2016-04-29 03:20:00,2,30053,0,0.00,2,2,0,2,14256,46770,10651,26728,0,0,0,0,0.00,0.00,0.00,0.00
2016-04-29 03:30:00,2,28557,0,0.00,2,2,0,2,22242,40642,5279,26855,0,0,0,0,0.00,0.00,0.00,0.00
2016-04-29 03:40:00,2,45032,0,0.00,2,2,0,2,32637,50000,4858,44878,0,0,0,0,0.00,0.00,0.00,0.00
2016-04-29 03:50:00,2,36947,0,0.00,2,2,0,2,22053,50000,11776,37048,0,0,0,0,0.00,0.00,0.00,0.00
2016-04-29 04:00:00,2,35546,0,0.00,2,2,0,2,20788,45680,7743,37884,0,0,0,0,0.00,0.00,0.00,0.00
2016-04-29 04:10:00,2,38282,0,0.00,2,2,0,2,27130,47039,7102,36862,0,0,0,0,0.00,0.00,0.00,0.00
2016-04-29 04:20:00,2,37033,0,0.00,2,2,0,2,25996,46151,6514,37534,0,0,0,0,0.00,0.00,0.00,0.00
2016-04-29 04:30:00,2,41230,0,0.00,2,2,0,2,33700,50000,5553,39288,0,0,0,0,0.00,0.00,0.00,0.00
2016-04-29 04:40:00,2,32877,0,0.00,2,2,0,2,22379,44446,8110,34248,0,0,0,0,0.00,0.00,0.00,0.00
2016-04-29 04:50:00,2,43257,0,0.00,2,2,0,2,33549,50000,5675,44384,0,0,0,0,0.00,0.00,0.00,0.00
2016-04-29 05:00:00,2,32401,4,0.00,2,2,0,2,12526,46390,9973,31794,0,40,12,0,0.00,0.00,0.00,0.00
2016-04-29 05:10:00,2,20484,68,0.03,2,2,0,2,12258,29529,5748,20438,40,71,9,71,0.00,0.10,0.04,0.00
2016-04-29 05:20:00,2,16239,71,0.18,2,2,0,2,10603,23251,4010,16948,71,71,0,71,0.00,0.55,0.16,0.12
2016-04-29 05:30:00,2,25194,71,0.04,2,2,0,2,18713,35558,6034,22414,71,71,0,71,0.00,0.10,0.04,0.03
2016-04-29 05:40:00,2,15033,71,0.17,2,2,0,2,9308,21289,4035,14418,71,71,0,71,0.05,0.50,0.14,0.12
2016-04-29 05:50:00,2,18564,71,0.14,2,2,0,2,10264,31596,7444,17310,71,71,0,71,0.00,0.35,0.12,0.12
2016-04-29 06:00:00,2,40122,44,0.01,2,2,0,2,22895,50000,7692,42626,0,77,36,71,0.00,0.05,0.02,0.00
2016-04-29 06:10:00,2,24214,64,0.04,2,2,0,2,16222,34017,5150,25270,0,71,21,71,0.00,0.25,0.08,0.00
2016-04-29 06:20:00,2,21728,36,0.08,2,2,0,2,7350,35240,8247,23922,0,71,36,36,0.00,0.50,0.15,0.00
2016-04-29 06:30:00,2,38573,30,0.00,2,2,0,2,26584,49135,6469,38806,0,78,37,0,0.00,0.00,0.00,0.00
2016-04-29 06:40:00,2,40891,0,0.00,2,2,0,2,27442,50000,6643,40593,0,0,0,0,0.00,0.00,0.00,0.00
2016-04-29 06:50:00,2,31417,52,0.03,2,2,0,2,17019,43263,7954,34356,0,77,34,71,0.00,0.15,0.05,0.00
2016-04-29 07:00:00,2,34678,76,0.01,2,2,0,2,21042,44525,6741,35754,71,77,2,77,0.00,0.05,0.02,0.00
2016-04-29 07:10:00,2,30474,76,0.02,2,2,0,2,22031,40949,6515,29238,71,78,3,77,0.00,0.10,0.03,0.00
2016-04-29 07:20:00,2,42199,31,0.00,2,2,0,2,33196,49852,4554,41555,0,78,38,0,0.00,0.00,0.00,0.00
2016-04-29 07:30:00,2,32503,36,0.03,2,2,0,2,20529,44328,7920,33752,0,71,36,36,0.00,0.15,0.05,0.00
2016-04-29 07:40:00,2,41542,73,0.01,2,2,0,2,34964,46875,4178,43052,71,77,3,71,0.00,0.10,0.03,0.00
2016-04-29 07:50:00,2,31649,75,0.04,2,2,0,2,20513,44686,6976,31301,71,77,3,77,0.00,0.20,0.06,0.03
2016-04-29 08:00:00,2,30904,71,0.02,2,2,0,2,23240,42146,4933,29900,71,71,0,71,0.00,0.10,0.03,0.00
2016-04-29 08:10:00,2,27807,73,0.04,2,2,0,2,11632,36301,8635,31724,71,77,3,71,0.00,0.15,0.06,0.03
2016-04-29 08:20:00,2,15979,71,0.24,2,2,0,2,6610,27025,5595,16464,71,71,0,71,0.05,0.60,0.21,0.15
2016-04-29 08:30:00,2,17774,71,0.21,2,2,0,2,9327,30546,6256,17618,71,71,0,71,0.00,0.45,0.16,0.17
2016-04-29 08:40:00,2,10938,71,0.27,2,2,0,2,6486,16740,3278,9618,71,71,0,71,0.05,0.55,0.18,0.20
2016-04-29 08:50:00,2,36236,47,0.01,2,2,0,2,18114,49508,10934,37710,0,71,32,71,0.00,0.05,0.02,0.00
2016-04-29 09:00:00,2,38408,0,0.00,2,2,0,2,28812,50000,7292,35202,0,0,0,0,0.00,0.00,0.00,0.00
2016-04-29 09:10:00,2,46672,0,0.00,2,2,0,2,39837,50000,3689,49035,0,0,0,0,0.00,0.00,0.00,0.00
2016-04-29 09:20:00,2,44230,0,0.00,2,2,0,2,32778,50000,5817,44216,0,0,0,0,0.00,0.00,0.00,0.00
2016-04-29 09:30:00,2,43103,0,0.00,2,2,0,2,37005,50000,4428,41626,0,0,0,0,0.00,0.00,0.00,0.00
2016-04-29 09:40:00,2,33895,0,0.00,2,2,0,2,28093,38952,3358,33201,0,0,0,0,0.00,0.00,0.00,0.00
2016-04-29 09:50:00,2,43580,0,0.00,2,2,0,2,35192,50000,4157,43713,0,0,0,0,0.00,0.00,0.00,0.00
2016-04-29 10:00:00,2,43435,0,0.00,2,2,0,2,36175,50000,4758,43482,0,0,0,0,0.00,0.00,0.00,0.00
2016-04-29 10:10:00,2,45370,0,0.00,2,2,0,2,33761,50000,6565,49894,0,0,0,0,0.00,0.00,0.00,0.00
2016-04-29 10:20:00,2,46906,0,0.00,2,2,0,2,43818,50000,1900,46595,0,0,0,0,0.00,0.00,0.00,0.00
2016-04-29 10:30:00,2,43794,0,0.00,2,2,0,2,38944,47897,3248,44262,0,0,0,0,0.00,0.00,0.00,0.00
2016-04-29 10:40:00,2,49359,0,0.00,2,2,0,2,45735,50000,1291,50000,0,0,0,0,0.00,0.00,0.00,0.00
2016-04-29 10:50:00,2,47855,0,0.00,2,2,0,2,39598,50000,3258,49177,0,0,0,0,0.00,0.00,0.00,0.00
2016-04-29 11:00:00,2,47438,0,0.00,2,2,0,2,45082,50000,1765,47082,0,0,0,0,0.00,0.00,0.00,0.00
2016-04-29 11:10:00,2,46520,0,0.00,2,2,0,2,41945,50000,2609,46478,0,0,0,0,0.00,0.00,0.00,0.00
2016-04-29 11:20:00,2,49159,0,0.00,2,2,0,2,46909,50000,1220,49902,0,0,0,0,0.00,0.00,0.00,0.00
2016-04-29 11:30:00,2,48751,0,0.00,2,2,0,2,43867,50000,2055,49628,0,0,0,0,0.00,0.00,0.00,0.00
2016-04-29 11:40:00,2,43496,0,0.00,2,2,0,2,35991,50000,5062,44610,0,0,0,0,0.00,0.00,0.00,0.00
2016-04-29 11:50:00,2,49887,0,0.00,2,2,0,2,49254,50000,231,50000,0,0,0,0,0.00,0.00,0.00,0.00
2016-04-29 12:00:00,2,49147,0,0.00,2,2,0,2,46568,50000,1332,50000,0,0,0,0,0.00,0.00,0.00,0.00
2016-04-29 12:10:00,2,49477,0,0.00,2,2,0,2,45296,50000,1399,50000,0,0,0,0,0.00,0.00,0.00,0.00
2016-04-29 12:20:00,2,42050,22,0.01,2,2,0,2,31595,49240,5563,44430,0,77,33,0,0.00,0.05,0.02,0.00
2016-04-29 12:30:00,2,37098,75,0.02,2,2,0,2,27052,46957,6259,37198,71,77,3,77,0.00,0.05,0.02,0.00
2016-04-29 12:40:00,2,33193,76,0.00,2,2,0,2,29288,37225,2726,32481,71,78,3,78,0.00,0.00,0.00,0.00
2016-04-29 12:50:00,2,19825,73,0.07,2,2,0,2,7414,37674,8624,20301,71,78,3,71,0.00,0.25,0.07,0.05
2016-04-29 13:00:00,2,5565,71,0.55,2,2,0,2,3762,7359,1053,5296,71,71,0,71,0.25,0.95,0.22,0.53
2016-04-29 13:10:00,2,3204,71,1.29,2,2,0,2,2038,3997,684,3404,71,71,0,71,0.40,2.25,0.62,0.97
2016-04-29 13:20:00,2,1733,71,2.52,2,2,0,2,1569,2005,129,1708,71,71,0,71,1.90,3.10,0.39,2.60
2016-04-29 13:30:00,2,1861,71,2.49,2,2,0,2,1405,2305,280,1954,71,71,0,71,1.85,3.65,0.58,2.20
2016-04-29 13:40:00,2,2325,71,1.48,2,2,0,2,1958,2700,292,2243,71,71,0,71,0.75,2.15,0.44,1.53
2016-04-29 13:50:00,2,4532,71,1.00,2,2,0,2,2286,7598,1518,4473,71,71,0,71,0.35,2.20,0.58,0.75
2016-04-29 14:00:00,2,6911,71,0.38,2,2,0,2,5442,8831,1068,6562,71,71,0,71,0.15,0.65,0.16,0.33
2016-04-29 14:10:00,2,6967,71,0.22,2,2,0,2,4962,8019,1074,7438,71,71,0,71,0.10,0.55,0.14,0.15
2016-04-29 14:20:00,2,4771,71,0.62,2,2,0,2,4074,5592,410,4736,71,71,0,71,0.30,1.15,0.24,0.57
2016-04-29 14:30:00,2,3583,71,0.82,2,2,0,2,2967,4394,469,3590,71,71,0,71,0.45,1.30,0.23,0.85
2016-04-29 14:40:00,2,3335,71,0.55,2,2,0,2,2826,4163,402,3190,71,71,0,71,0.40,0.75,0.11,0.55
2016-04-29 14:50:00,2,3701,71,0.58,2,2,0,2,2268,4987,869,3923,71,71,0,71,0.25,1.70,0.44,0.47
2016-04-29 15:00:00,2,4155,71,0.38,2,2,0,2,2857,5495,764,4151,71,71,0,71,0.15,0.65,0.13,0.35
2016-04-29 15:10:00,2,9282,75,0.12,2,2,0,2,5809,18518,3470,8742,71,77,3,77,0.00,0.25,0.08,0.10
2016-04-29 15:20:00,2,8630,77,0.07,2,2,0,2,5581,16130,2776,7660,77,77,0,77,0.00,0.10,0.03,0.05
2016-04-29 15:30:00,2,4927,72,0.32,2,2,0,2,3910,6287,699,4824,71,77,2,71,0.15,0.55,0.14,0.25
2016-04-29 15:40:00,2,5903,73,0.30,2,2,0,2,3743,8474,1558,5892,71,77,3,71,0.10,0.60,0.16,0.30
2016-04-29 15:50:00,2,4895,71,0.35,2,2,0,2,3785,6827,909,4656,71,71,0,71,0.20,0.65,0.14,0.33
2016-04-29 16:00:00,2,5780,73,0.25,2,2,0,2,3680,9232,1540,5629,71,77,3,71,0.05,0.50,0.16,0.20
2016-04-29 16:10:00,2,6406,73,0.22,2,2,0,2,5218,7695,652,6443,71,77,3,71,0.10,0.50,0.11,0.20
2016-04-29 16:20:00,2,11870,72,0.04,2,2,0,2,5821,19099,4923,12741,71,78,3,71,0.00,0.10,0.05,0.03
2016-04-29 16:30:00,2,12652,78,0.02,2,2,0,2,6770,19583,3618,13568,78,78,0,78,0.00,0.05,0.02,0.00
2016-04-29 16:40:00,2,15190,74,0.03,2,2,0,2,8207,22082,4299,16858,71,78,3,71,0.00,0.20,0.06,0.00
2016-04-29 16:50:00,2,27694,62,0.00,2,2,0,2,19869,41211,6560,25234,0,78,31,78,0.00,0.00,0.00,0.00
2016-04-29 17:00:00,2,32207,0,0.00,2,2,0,2,23454,41106,4408,32006,0,0,0,0,0.00,0.00,0.00,0.00
2016-04-29 17:10:00,2,15703,57,0.01,2,2,0,2,10841,21799,3890,15333,0,71,28,71,0.00,0.15,0.05,0.00
2016-04-29 17:20:00,2,17988,76,0.00,2,2,0,2,15119,20639,1913,18360,71,78,3,78,0.00,0.00,0.00,0.00
2016-04-29 17:30:00,2,14193,78,0.00,2,2,0,2,10693,18362,2158,14286,78,78,0,78,0.00,0.00,0.00,0.00
2016-04-29 17:40:00,2,14872,78,0.01,2,2,0,2,11424,18742,2527,14650,78,78,0,78,0.00,0.05,0.02,0.00
2016-04-29 17:50:00,2,20676,77,0.02,2,2,0,2,16745,23576,2027,21259,71,78,3,78,0.00,0.15,0.05,0.00
2016-04-29 18:00:00,2,20386,76,0.01,2,2,0,2,15487,27705,3426,20953,71,78,3,77,0.00,0.05,0.02,0.00
2016-04-29 18:10:00,2,16358,75,0.01,2,2,0,2,10217,21974,3791,16808,71,78,3,77,0.00,0.05,0.02,0.00
2016-04-29 18:20:00,2,9545,78,0.04,2,2,0,2,7259,10738,1170,10125,77,78,0,78,0.00,0.10,0.03,0.05
2016-04-29 18:30:00,2,8577,73,0.08,2,2,0,2,7172,9905,812,8742,71,77,3,71,0.05,0.30,0.08,0.05
2016-04-29 18:40:00,2,9810,71,0.04,2,2,0,2,7481,12219,1421,10146,71,71,0,71,0.00,0.15,0.04,0.05
2016-04-29 18:50:00,2,14419,74,0.03,2,2,0,2,12111,19184,2427,13215,71,78,3,71,0.00,0.30,0.09,0.00
2016-04-29 19:00:00,2,22147,71,0.01,2,2,0,2,11166,30285,5126,22262,71,71,0,71,0.00,0.15,0.05,0.00
2016-04-29 19:10:00,2,21425,71,0.01,2,2,0,2,13316,36777,8403,17743,71,71,0,71,0.00,0.10,0.03,0.00
2016-04-29 19:20:00,2,15190,21,0.00,2,2,0,2,13479,18347,1672,14437,0,71,33,0,0.00,0.00,0.00,0.00
2016-04-29 19:30:00,2,17803,77,0.01,2,2,0,2,14539,21153,2069,17834,71,78,3,78,0.00,0.10,0.03,0.00
2016-04-29 19:40:00,2,19364,74,0.01,2,2,0,2,15271,24133,2464,19154,71,78,4,74,0.00,0.05,0.02,0.00
2016-04-29 19:50:00,2,17182,78,0.01,2,2,0,2,11023,22894,3652,16388,77,78,0,78,0.00,0.05,0.02,0.00
2016-04-29 20:00:00,2,13129,78,0.00,2,2,0,2,10216,18346,2437,12546,78,78,0,78,0.00,0.00,0.00,0.00
2016-04-29 20:10:00,2,15041,75,0.03,2,2,0,2,12880,17566,1494,14952,71,78,3,78,0.00,0.15,0.05,0.00
2016-04-29 20:20:00,2,14999,74,0.08,2,2,0,2,11361,23472,4028,12831,71,78,3,74,0.00,0.45,0.13,0.05
2016-04-29 20:30:00,2,14385,76,0.06,2,2,0,2,12874,16438,1177,14092,71,78,3,77,0.00,0.30,0.09,0.03
2016-04-29 20:40:00,2,8255,71,0.11,2,2,0,2,6843,11507,1318,7679,71,71,0,71,0.05,0.20,0.06,0.10
2016-04-29 20:50:00,2,13984,78,0.04,2,2,0,2,10588,16481,1947,14230,77,78,0,78,0.00,0.15,0.04,0.05
2016-04-29 21:00:00,2,9561,75,0.06,2,2,0,2,7337,11715,1320,9744,71,78,3,78,0.00,0.10,0.03,0.05
2016-04-29 21:10:00,2,8393,73,0.08,2,2,0,2,6541,9904,1076,8813,71,77,3,71,0.00,0.50,0.14,0.05
2016-04-29 21:20:00,2,9150,71,0.06,2,2,0,2,8136,11474,910,9048,71,71,0,71,0.00,0.15,0.04,0.05
2016-04-29 21:30:00,2,11702,71,0.08,2,2,0,2,9257,15466,2244,11273,71,71,0,71,0.00,0.20,0.06,0.08
2016-04-29 21:40:00,2,13501,71,0.04,2,2,0,2,11446,17813,1650,13121,71,71,0,71,0.00,0.20,0.06,0.05
2016-04-29 21:50:00,2,13363,71,0.08,2,2,0,2,10545,16846,1793,13240,71,71,0,71,0.00,0.25,0.07,0.05
2016-04-29 22:00:00,2,8963,71,0.33,2,2,0,2,4189,15413,3365,7891,71,71,0,71,0.05,1.00,0.27,0.30
2016-04-29 22:10:00,2,11947,71,0.20,2,2,0,2,4898,17534,3261,11784,71,71,0,71,0.00,0.95,0.28,0.08
2016-04-29 22:20:00,2,12554,71,0.10,2,2,0,2,8861,16457,2566,12604,71,71,0,71,0.00,0.25,0.08,0.08
2016-04-29 22:30:00,2,15439,75,0.06,2,2,0,2,13379,18563,1672,14940,71,78,3,77,0.00,0.15,0.06,0.05
2016-04-29 22:40:00,2,13910,75,0.06,2,2,0,2,9616,20462,3432,12676,71,77,3,77,0.00,0.25,0.07,0.05
2016-04-29 22:50:00,2,9210,71,0.29,2,2,0,2,6626,10782,1141,9310,71,71,0,71,0.05,0.60,0.14,0.28
2016-04-29 23:00:00,2,10038,71,0.26,2,2,0,2,8069,12785,1370,9990,71,71,0,71,0.00,0.95,0.27,0.17
2016-04-29 23:10:00,2,11133,71,0.14,2,2,0,2,10025,13023,1111,10558,71,71,0,71,0.05,0.20,0.05,0.12
2016-04-29 23:20:00,2,12210,71,0.10,2,2,0,2,9223,15040,1752,12358,71,71,0,71,0.00,0.20,0.05,0.10
2016-04-29 23:30:00,2,13193,74,0.06,2,2,0,2,11176,16892,1691,12972,71,77,3,74,0.00,0.10,0.03,0.05
2016-04-29 23:40:00,2,14171,73,0.07,2,2,0,2,10992,18853,2310,14340,71,77,3,71,0.00,0.20,0.06,0.05
2016-04-29 23:50:00,2,13222,71,0.15,2,2,0,2,10856,20824,2879,12382,71,71,0,71,0.05,0.40,0.13,0.10
